| time (UTC) | temp F | wind direction | speed MPH | gust MPH | rain 1hr in | rain 24hr in | rain mn in | humidity % | barometer mb |
| 20260506190416 | 48 | 235 | 4.0 | 27.0 | 0.00 | 0.00 | 0.00 | 36 | 1015.4 |
| 20260506185345 | 48 | 273 | 8.0 | 27.0 | 0.00 | 0.00 | 0.00 | 37 | 1015.5 |
| 20260506184356 | 47 | 277 | 6.0 | 13.0 | 0.00 | 0.00 | 0.00 | 38 | 1015.6 |
| 20260506183400 | 47 | 200 | 6.0 | 14.0 | 0.00 | 0.00 | 0.00 | 40 | 1015.9 |
| 20260506182416 | 47 | 271 | 7.0 | 14.0 | 0.00 | 0.00 | 0.00 | 41 | 1016.2 |
| 20260506181408 | 46 | 312 | 9.0 | 13.0 | 0.00 | 0.00 | 0.00 | 41 | 1016.3 |
| 20260506180400 | 46 | 314 | 4.0 | 15.0 | 0.00 | 0.00 | 0.00 | 41 | 1016.4 |
| 20260506175354 | 46 | 12 | 7.0 | 18.0 | 0.00 | 0.00 | 0.00 | 43 | 1016.5 |
| 20260506173151 | 44 | 241 | 7.0 | 14.0 | 0.00 | 0.00 | 0.00 | 44 | 1016.7 |
| 20260506172131 | 44 | 310 | 6.0 | 19.0 | 0.00 | 0.00 | 0.00 | 46 | 1017.0 |
| 20260506171125 | 43 | 298 | 9.0 | 19.0 | 0.00 | 0.00 | 0.00 | 46 | 1017.2 |
| 20260506170053 | 43 | 309 | 10.0 | 17.0 | 0.00 | 0.00 | 0.00 | 48 | 1017.3 |
| 20260506165103 | 43 | 309 | 9.0 | 15.0 | 0.00 | 0.00 | 0.00 | 48 | 1017.4 |
| 20260506164053 | 42 | 303 | 10.0 | 16.0 | 0.00 | 0.00 | 0.00 | 49 | 1017.6 |
| 20260506163056 | 41 | 273 | 8.0 | 16.0 | 0.00 | 0.00 | 0.00 | 51 | 1017.7 |
| 20260506162039 | 42 | 290 | 9.0 | 15.0 | 0.00 | 0.00 | 0.00 | 50 | 1017.9 |
| 20260506154642 | 40 | 345 | 9.0 | 15.0 | 0.00 | 0.00 | 0.00 | 54 | 1018.1 |
| 20260506153650 | 40 | 306 | 10.0 | 15.0 | 0.00 | 0.00 | 0.00 | 55 | 1018.2 |
| 20260506152638 | 40 | 302 | 8.0 | 17.0 | 0.00 | 0.00 | 0.00 | 56 | 1018.2 |
| 20260506150439 | 38 | 301 | 9.0 | 15.0 | 0.00 | 0.00 | 0.00 | 57 | 1018.4 |
| 20260506145402 | 38 | 297 | 8.0 | 13.0 | 0.00 | 0.00 | 0.00 | 58 | 1018.6 |
| 20260506144424 | 38 | 347 | 7.0 | 13.0 | 0.00 | 0.00 | 0.00 | 59 | 1018.6 |
| 20260506141151 | 36 | 317 | 6.0 | 9.0 | 0.00 | 0.00 | 0.00 | 66 | 1018.9 |
| 20260506135002 | 33 | 286 | 5.0 | 9.0 | 0.00 | 0.00 | 0.00 | 71 | 1019.0 |
| 20260506133918 | 31 | 306 | 5.0 | 8.0 | 0.00 | 0.00 | 0.00 | 74 | 1019.0 |
| 20260506132922 | 30 | 324 | 4.0 | 8.0 | 0.00 | 0.00 | 0.00 | 77 | 1019.1 |
| 20260506131859 | 28 | 315 | 5.0 | 8.0 | 0.00 | 0.00 | 0.00 | 79 | 1019.0 |
| 20260506130844 | 27 | 292 | 5.0 | 7.0 | 0.00 | 0.00 | 0.00 | 80 | 1019.1 |
| 20260506125859 | 26 | 0 | 5.0 | 8.0 | 0.00 | 0.00 | 0.00 | 81 | 1019.0 |
| 20260506122553 | 22 | 281 | 5.0 | 8.0 | 0.00 | 0.00 | 0.00 | 85 | 1018.8 |
| 20260506121602 | 22 | 289 | 5.0 | 7.0 | 0.00 | 0.00 | 0.00 | 86 | 1018.8 |
| 20260506120531 | 21 | 289 | 4.0 | 7.0 | 0.00 | 0.00 | 0.00 | 86 | 1018.7 |
| 20260506114352 | 21 | 0 | 3.0 | 5.0 | 0.00 | 0.00 | 0.00 | 86 | 1018.5 |
| 20260506113355 | 21 | 297 | 2.0 | 6.0 | 0.00 | 0.00 | 0.00 | 85 | 1018.4 |
| 20260506112409 | 21 | 295 | 4.0 | 6.0 | 0.00 | 0.00 | 0.00 | 86 | 1018.5 |
| 20260506111355 | 21 | 0 | 4.0 | 7.0 | 0.00 | 0.00 | 0.00 | 85 | 1018.4 |
| 20260506110401 | 21 | 286 | 5.0 | 7.0 | 0.00 | 0.00 | 0.00 | 85 | 1018.4 |
| 20260506105335 | 21 | 292 | 4.0 | 7.0 | 0.00 | 0.00 | 0.00 | 84 | 1018.4 |
| 20260506104343 | 22 | 0 | 5.0 | 7.0 | 0.00 | 0.00 | 0.00 | 85 | 1018.4 |
| 20260506103352 | 21 | 0 | 4.0 | 6.0 | 0.00 | 0.00 | 0.00 | 84 | 1018.3 |
| 20260506102321 | 22 | 296 | 4.0 | 6.0 | 0.00 | 0.00 | 0.00 | 84 | 1018.2 |
| 20260506101310 | 22 | 292 | 4.0 | 6.0 | 0.00 | 0.00 | 0.00 | 83 | 1018.3 |
| 20260506100237 | 23 | 288 | 5.0 | 7.0 | 0.00 | 0.00 | 0.00 | 83 | 1018.2 |
| 20260506095250 | 23 | 279 | 4.0 | 7.0 | 0.00 | 0.00 | 0.00 | 82 | 1018.2 |
| 20260506094235 | 24 | 280 | 4.0 | 6.0 | 0.00 | 0.00 | 0.00 | 81 | 1018.1 |
| 20260506092029 | 26 | 0 | 5.0 | 6.0 | 0.00 | 0.00 | 0.00 | 78 | 1018.1 |
| 20260506091044 | 27 | 286 | 5.0 | 6.0 | 0.00 | 0.00 | 0.00 | 76 | 1018.1 |
| 20260506090013 | 29 | 284 | 4.0 | 6.0 | 0.00 | 0.00 | 0.00 | 75 | 1018.1 |
| 20260506084937 | 29 | 292 | 4.0 | 6.0 | 0.00 | 0.00 | 0.00 | 75 | 1018.0 |
| 20260506083906 | 30 | 293 | 4.0 | 8.0 | 0.00 | 0.00 | 0.00 | 75 | 1018.1 |
| 20260506081724 | 29 | 297 | 5.0 | 7.0 | 0.00 | 0.00 | 0.00 | 74 | 1018.1 |
| 20260506073528 | 31 | 281 | 3.0 | 4.0 | 0.00 | 0.00 | 0.00 | 72 | 1018.1 |
| 20260506072529 | 31 | 275 | 3.0 | 4.0 | 0.00 | 0.00 | 0.00 | 71 | 1018.1 |
| 20260506070350 | 32 | 284 | 3.0 | 5.0 | 0.00 | 0.00 | 0.00 | 70 | 1018.1 |
| 20260506044340 | 33 | 355 | 2.0 | 3.0 | 0.00 | 0.00 | 0.00 | 65 | 1017.8 |
| 20260506043345 | 34 | 24 | 1.0 | 3.0 | 0.00 | 0.00 | 0.00 | 63 | 1017.8 |
| 20260506041235 | 34 | 24 | 2.0 | 3.0 | 0.00 | 0.00 | 0.00 | 62 | 1017.9 |
| 20260506040213 | 34 | 24 | 4.0 | 6.0 | 0.00 | 0.00 | 0.00 | 62 | 1017.8 |
| 20260506035223 | 35 | 25 | 6.0 | 7.0 | 0.00 | 0.00 | 0.00 | 61 | 1017.8 |
| 20260506034158 | 35 | 28 | 6.0 | 7.0 | 0.00 | 0.00 | 0.00 | 60 | 1017.8 |
| 20260506033129 | 34 | 30 | 6.0 | 7.0 | 0.00 | 0.00 | 0.00 | 60 | 1017.8 |
| 20260506032111 | 34 | 32 | 4.0 | 6.0 | 0.00 | 0.00 | 0.00 | 60 | 1017.6 |
| 20260506031129 | 35 | 30 | 4.0 | 5.0 | 0.00 | 0.00 | 0.00 | 59 | 1017.6 |
| 20260506030140 | 35 | 30 | 5.0 | 8.0 | 0.00 | 0.00 | 0.00 | 57 | 1017.5 |
| 20260506025201 | 36 | 26 | 5.0 | 8.0 | 0.00 | 0.00 | 0.00 | 55 | 1017.4 |
| 20260506024131 | 37 | 30 | 5.0 | 8.0 | 0.00 | 0.00 | 0.00 | 54 | 1017.3 |
| 20260506023121 | 38 | 36 | 6.0 | 9.0 | 0.00 | 0.00 | 0.00 | 53 | 1017.1 |
| 20260506022117 | 38 | 36 | 8.0 | 13.0 | 0.00 | 0.00 | 0.00 | 52 | 1017.0 |
| 20260506020017 | 39 | 29 | 8.0 | 11.0 | 0.00 | 0.00 | 0.00 | 51 | 1016.8 |
| 20260506015011 | 40 | 15 | 8.0 | 14.0 | 0.00 | 0.00 | 0.00 | 50 | 1016.6 |
| 20260506013956 | 40 | 17 | 9.0 | 14.0 | 0.00 | 0.00 | 0.00 | 49 | 1016.4 |
| 20260506012923 | 40 | 24 | 10.0 | 17.0 | 0.00 | 0.00 | 0.00 | 49 | 1016.4 |
| 20260506011922 | 41 | 40 | 12.0 | 18.0 | 0.00 | 0.00 | 0.00 | 47 | 1016.3 |
| 20260506005710 | 42 | 17 | 14.0 | 19.0 | 0.00 | 0.00 | 0.00 | 45 | 1016.2 |
| 20260506004634 | 43 | 9 | 13.0 | 18.0 | 0.00 | 0.00 | 0.00 | 44 | 1016.0 |
| 20260506003600 | 44 | 10 | 13.0 | 22.0 | 0.00 | 0.00 | 0.00 | 42 | 1015.8 |
| 20260506001424 | 45 | 334 | 11.0 | 18.0 | 0.00 | 0.00 | 0.00 | 39 | 1015.7 |
| 20260506000428 | 44 | 326 | 10.0 | 24.0 | 0.00 | 0.00 | 0.00 | 40 | 1015.7 |
| 20260505235448 | 44 | 342 | 12.0 | 24.0 | 0.00 | 0.00 | 0.00 | 39 | 1015.7 |
| 20260505233315 | 45 | 331 | 13.0 | 22.0 | 0.00 | 0.00 | 0.00 | 38 | 1015.5 |
| 20260505232318 | 44 | 340 | 12.0 | 21.0 | 0.00 | 0.00 | 0.00 | 39 | 1015.5 |
| 20260505231251 | 44 | 321 | 12.0 | 25.0 | 0.00 | 0.00 | 0.00 | 39 | 1015.6 |
| 20260505230257 | 45 | 336 | 12.0 | 26.0 | 0.00 | 0.00 | 0.00 | 38 | 1015.4 |
| 20260505225238 | 45 | 338 | 13.0 | 26.0 | 0.00 | 0.00 | 0.00 | 37 | 1015.6 |
| 20260505223132 | 45 | 341 | 15.0 | 32.0 | 0.00 | 0.00 | 0.00 | 37 | 1015.5 |
| 20260505222054 | 45 | 343 | 16.0 | 30.0 | 0.00 | 0.00 | 0.00 | 37 | 1015.6 |
| 20260505221037 | 44 | 348 | 16.0 | 27.0 | 0.00 | 0.00 | 0.00 | 37 | 1015.6 |
| 20260505220009 | 45 | 330 | 14.0 | 27.0 | 0.00 | 0.00 | 0.00 | 36 | 1015.6 |
| 20260505214935 | 44 | 310 | 16.0 | 27.0 | 0.00 | 0.00 | 0.00 | 36 | 1015.6 |
| 20260505213905 | 45 | 330 | 14.0 | 23.0 | 0.00 | 0.00 | 0.00 | 36 | 1015.6 |
| 20260505212926 | 45 | 323 | 13.0 | 26.0 | 0.00 | 0.00 | 0.00 | 35 | 1015.6 |
| 20260505211943 | 44 | 350 | 15.0 | 26.0 | 0.00 | 0.00 | 0.00 | 34 | 1015.8 |
| 20260505210910 | 44 | 342 | 15.0 | 22.0 | 0.00 | 0.00 | 0.00 | 35 | 1015.8 |
| 20260505205846 | 44 | 335 | 13.0 | 22.0 | 0.00 | 0.00 | 0.00 | 36 | 1015.7 |
| 20260505204819 | 44 | 343 | 13.0 | 25.0 | 0.00 | 0.00 | 0.00 | 36 | 1015.8 |
| 20260505203822 | 44 | 313 | 13.0 | 25.0 | 0.00 | 0.00 | 0.00 | 36 | 1015.9 |
| 20260505202802 | 43 | 333 | 16.0 | 24.0 | 0.00 | 0.00 | 0.00 | 36 | 1015.8 |
| 20260505201749 | 43 | 327 | 13.0 | 22.0 | 0.00 | 0.00 | 0.00 | 36 | 1015.9 |
| 20260505200735 | 43 | 14 | 14.0 | 24.0 | 0.00 | 0.00 | 0.00 | 36 | 1016.0 |
| 20260505194525 | 43 | 0 | 14.0 | 25.0 | 0.00 | 0.00 | 0.00 | 37 | 1015.7 |
| 20260505193544 | 43 | 286 | 15.0 | 27.0 | 0.00 | 0.00 | 0.00 | 36 | 1015.8 |
| 20260505192551 | 43 | 0 | 14.0 | 31.0 | 0.00 | 0.00 | 0.00 | 36 | 1015.8 |
| 20260505191552 | 42 | 0 | 14.0 | 31.0 | 0.00 | 0.00 | 0.00 | 37 | 1015.7 |